Flag for United Arab Emirates Weather past 2 weeks in Sharjah, Sharjah, United Arab Emirates

Now
100 °F

Sunny.


Feels Like: 97 °F
Forecast: 83 / 104 °F
Wind: 15 mph from West

Location: Sharjah International Airport

Current Time: May 22, 2015 at 4:31:55 PM

Latest Report: May 22, 2015 at 4:00 PM


Visibility: 10 mi

Pressure: 29.68 "Hg

Humidity: 18%

Dew point: 50 °F

Location of SharjahLocation

Historic Weather in Sharjah — Graph

°F

Sharjah temperature yesterday

Maximum temperature yesterday: 104 °F (at 1:00 PM)
Minimum temperature yesterday: 77 °F (at 6:00 AM)
Average temperature yesterday: 89 °F

Past Weeks' High & Low Weather Summary

 TemperatureHumidityPressure
High109 °F (May 13, 12:00 PM)100% (May 11, 11:00 PM)29.83 "Hg (May 11, 11:00 PM)
Low73 °F (May 11, 5:00 AM)7% (May 13, 11:00 AM)29.62 "Hg (May 9, 2:00 AM)
Average91 °F38%29.71 "Hg
* Reported May 7 3:00 PM — May 22 3:00 PM, Sharjah, Weather by CustomWeather, © 2015

Note: Actual official high and low records may vary slightly from our data, if they occured in-between our weather recording intervals... More about our weather records

Advertising

Sharjah weather history for previous 24 hours

 ConditionsComfort  
Time TempWeatherWind HumidityBarometerVisibility
3:00 PM
Fri, May 22
100 °FSunny.15 mph20%29.68 "Hg10 mi
2:00 PM100 °FSunny.15 mph21%29.68 "Hg10 mi
1:00 PM104 °FSunny.16 mph12%29.71 "Hg10 mi
12:00 PM104 °FSunny.12 mph12%29.71 "Hg10 mi
11:00 AM102 °FSunny.9 mph15%29.74 "Hg10 mi
10:00 AM99 °FSunny.9 mph13%29.74 "Hg10 mi
9:00 AM91 °FSunny.2 mph21%29.74 "Hg10 mi
8:00 AM86 °FSunny.5 mph29%29.71 "Hg10 mi
7:00 AM77 °FSunny.3 mph47%29.71 "Hg10 mi
6:00 AM73 °FSunny.2 mph53%29.68 "Hg10 mi
5:00 AM82 °FClear.5 mph40%29.68 "Hg10 mi
4:00 AM82 °FClear.10 mph45%29.65 "Hg10 mi
3:00 AM82 °FClear.8 mph55%29.65 "Hg10 mi
2:00 AM82 °FClear.8 mph58%29.65 "Hg10 mi
1:00 AM84 °FClear.7 mph58%29.68 "Hg10 mi
12:00 AM84 °FClear.7 mph55%29.71 "Hg10 mi
11:00 PM
Thu, May 21
86 °FClear.6 mph55%29.71 "Hg10 mi
10:00 PM88 °FClear.3 mph52%29.71 "Hg10 mi
9:00 PM84 °FClear.2 mph62%29.71 "Hg10 mi
8:00 PM88 °FClear.7 mph55%29.68 "Hg10 mi
7:00 PM90 °FClear.8 mph52%29.68 "Hg10 mi
6:00 PM93 °FSunny.14 mph39%29.68 "Hg10 mi
5:00 PM97 °FSunny.15 mph25%29.68 "Hg10 mi
4:00 PM97 °FSunny.14 mph32%29.68 "Hg10 mi
Weather by CustomWeather, © 2015

See weather overviewHow to use our weather pages